Retour au catalogue

STARLINK-5703

ActifCommunicationsVLEO
NORAD 55593·PAYLOAD·🇺🇸 United States

Lancé Feb 12, 2023 depuis Cape Canaveral Space Force Station

Loading…

Prochains Passages (prochaines 24 heures)

TLE

FraisSource: CelesTrak SupGP

Époque: Sep 15, 2026, 01:38 UTC

1 55593C 23020AA  26258.06854167 -.00032438  00000+0 -11749-2 0  2587
2 55593  43.0021  15.3313 0001312 269.6307 319.2829 15.27593487    11

Suivez STARLINK-5703 en temps réel avec AllMySat

Download on the App Store